Find Westar 2

NORAD ID: 7466 Int'l Des: 1974-075 Owner: WUTC Country: US operational
HEOCIRCULAR

实时位置

正在加载3D地球...

关于 Westar 2

正在加载描述...

即将过境

Passes for default location (London). Set your location on the main map for personalized predictions.

高度历史

Loading altitude history...

两行轨道根数

1 07466U 74075A 26105.92725427 -.00000232 00000-0 00000-0 0 9996
2 07466 7.3985 300.1762 0001882 209.0706 317.2157 0.99850801137039
Epoch: Apr 15, 2026 • Age: 30 hours

当前状态

高度 35899.9 km
速度 3.07 km/s
星下点 -6.99°S, 73.44°W
类型 other

Most Searched